User: anonymous   Login
Location: New Plymouth
(39.0670°S, 174.0830°E)
Time: 01:59:11
(UTC+13:00)
Language:

Cosmos 2322 Rocket - Orbit

View from above orbital plane
View from above orbital plane
View from above satellite
View from above satellite

Ground track
Ground track

The orbit data is extracted from the following two-line orbital elements,

1 23705U 95058B   19325.42807111 -.00000222 +00000-0 -90092-4 0  9990
2 23705 071.0199 327.5166 0011614 014.9997 345.1468 14.15127357242407
Epoch (UTC): 21 November 2019 10:16:25
Eccentricity: 0.0011614
inclination: 71.0199°
perigee height: 833 km
apogee height: 850 km
right ascension of ascending node: 327.5166°
argument of perigee: 14.9997°
revolutions per day: 14.15127357
mean anomaly at epoch: 345.1468°
orbit number at epoch: 24240

The dashed part of the orbit path shows where the satellite is in the earth's shadow,  

DLR